De Queen, AR

8:52 PM CST on February 24, 2017 (GMT -0600)
Helms Sevier County

Weather History for KDEQ - May, 2012

Change the Weather History Date:

Thursday, May 31, 2012

  Actual Average Record
Temperature  
Mean Temperature 72 °F 74 °F  
Max Temperature 86 °F 85 °F 96 °F (2003)
Min Temperature 58 °F 63 °F 46 °F (1992)
Degree Days  
Heating Degree Days 0 0  
Month to date heating degree days 0 21  
Since 1 July heating degree days 2414 3042  
Cooling Degree Days 7 9  
Month to date cooling degree days 252 170  
Year to date cooling degree days 373 217  
Growing Degree Days 25 (Base 50)    
Moisture  
Dew Point 62 °F    
Average Humidity 64    
Maximum Humidity 90    
Minimum Humidity 37    
Precipitation  
Precipitation 0.09 in 0.14 in 1.80 in (1967)
Month to date precipitation 0.87 5.56  
Year to date precipitation 13.37 21.13  
Snow  
Snow 0.00 in - - ()
Month to date snowfall 0.0  
Since 1 July snowfall 2.3  
Snow Depth 0.00 in    
Sea Level Pressure  
Sea Level Pressure 29.77 in    
Wind  
Wind Speed 5 mph (WNW)    
Max Wind Speed 21 mph    
Max Gust Speed 32 mph    
Visibility 8 miles    
Events Rain , Thunderstorm    
T = Trace of Precipitation, MM = Missing Value Source: NWS Daily Summary

Daily Weather History Graph

Daily Weather History Graph

Search for Another Location

Airport or City:

Trip Planner

Search our weather history database for the weather conditions in past years. The results will help you decide how hot, cold, wet, or windy it might be!

Date:

Astronomy

May. 31, 2012 Rise Set
Actual Time 6:07 AM CDT 8:23 PM CDT
Civil Twilight 5:38 AM CDT 8:52 PM CDT
Nautical Twilight 5:03 AM CDT 9:27 PM CDT
Astronomical Twilight 4:25 AM CDT 10:05 PM CDT
Moon 4:22 PM CDT (5/31) 2:55 AM CDT (5/31)
Length of Visible Light 15h 13m
Length of Day
14h 16m
Waxing Gibbous, 80% of the Moon is Illuminated
May 31
Waxing Gibbous
Jun 4
Full
Jun 11
Last Quarter
Jun 19
New
Jun 26
First Quarter

Hourly Weather History & Observations

Time (CDT) Temp. Heat Index Dew Point Humidity Pressure Visibility Wind Dir Wind Speed Gust Speed Precip Events Conditions
12:53 AM 68.0 °F - 64.9 °F 90% 29.77 in 9.0 mi Calm Calm - N/A   Clear
1:53 AM 68.0 °F - 64.9 °F 90% 29.73 in 9.0 mi NNE 4.6 mph - N/A   Clear
2:34 AM 73.4 °F - 66.2 °F 78% 29.77 in 9.0 mi South 15.0 mph 32.2 mph N/A Thunderstorm Mostly Cloudy
2:53 AM 72.0 °F - 64.9 °F 78% 29.75 in 8.0 mi SW 5.8 mph - 0.00 in Rain , Thunderstorm Light Rain
3:40 AM 68.0 °F - 66.2 °F 94% 29.76 in 5.0 mi WSW 3.5 mph - 0.02 in Rain Light Rain
3:53 AM 68.0 °F - 66.0 °F 93% 29.75 in 4.0 mi SSE 3.5 mph - 0.03 in Rain , Thunderstorm Light Thunderstorms and Rain
4:07 AM 68.0 °F - 64.4 °F 88% 29.75 in 3.0 mi Calm Calm - 0.03 in Rain Rain
4:53 AM 66.9 °F - 66.0 °F 97% 29.68 in 4.0 mi West 9.2 mph - 0.06 in   Partly Cloudy
5:53 AM 66.9 °F - 64.9 °F 93% 29.74 in 7.0 mi SSE 8.1 mph - 0.00 in Rain Light Rain
6:53 AM 66.9 °F - 66.0 °F 97% 29.70 in 6.0 mi Calm Calm - 0.00 in   Clear
7:53 AM 70.0 °F - 66.9 °F 90% 29.71 in 7.0 mi Calm Calm - N/A   Clear
8:53 AM 73.0 °F - 66.9 °F 81% 29.74 in 9.0 mi Calm Calm - N/A   Clear
9:53 AM 77.0 °F - 68.0 °F 74% 29.75 in 9.0 mi NNE 4.6 mph - N/A   Clear
10:53 AM 79.0 °F - 66.0 °F 64% 29.77 in 10.0 mi NNE 4.6 mph - N/A   Mostly Cloudy
11:53 AM 81.0 °F 82.5 °F 64.0 °F 56% 29.78 in 10.0 mi West 3.5 mph - N/A   Mostly Cloudy
12:53 PM 82.0 °F 83.8 °F 64.9 °F 56% 29.78 in 10.0 mi West 8.1 mph - N/A   Partly Cloudy
1:53 PM 80.1 °F 81.7 °F 64.0 °F 58% 29.78 in 10.0 mi NNW 8.1 mph - N/A   Overcast
2:53 PM 82.9 °F 83.2 °F 60.1 °F 46% 29.77 in 10.0 mi NNW 11.5 mph 17.3 mph N/A   Scattered Clouds
3:53 PM 82.0 °F 82.4 °F 60.1 °F 47% 29.75 in 10.0 mi WNW 8.1 mph 17.3 mph N/A   Mostly Cloudy
4:53 PM 84.9 °F 84.4 °F 59.0 °F 41% 29.73 in 10.0 mi WNW 11.5 mph 21.9 mph N/A   Clear
5:53 PM 84.0 °F 83.8 °F 59.0 °F 43% 29.74 in 10.0 mi NW 8.1 mph - N/A   Scattered Clouds
6:53 PM 82.0 °F 81.3 °F 54.0 °F 38% 29.76 in 10.0 mi NW 6.9 mph - N/A   Clear
7:53 PM 78.1 °F - 52.0 °F 40% 29.80 in 10.0 mi WNW 8.1 mph - N/A   Clear
8:53 PM 73.0 °F - 52.0 °F 48% 29.83 in 10.0 mi NW 6.9 mph - N/A   Clear
9:53 PM 70.0 °F - 50.0 °F 49% 29.86 in 10.0 mi WNW 4.6 mph - N/A   Clear
10:53 PM 68.0 °F - 51.1 °F 55% 29.90 in 10.0 mi Calm Calm - N/A   Clear
11:53 PM 62.1 °F - 53.1 °F 72% 29.91 in 10.0 mi Calm Calm - N/A   Clear